QPF
0.00 0.00 0.00 0.00 0.01 0.01 0.01 0.00 0.00 0.00 0.00 0.00 0.00 0.00 0.00 0.00 0.00 0.00 0.00 0.00 0.00 0.00 0.01 0.01 0.00 0.00 0.00 0.00 0.00 0.00 0.00 0.00 0.00 0.00 0.01 0.00 0.00 0.00 0.00 0.00 0.00 0.00 0.02
0.00 0.00 0.00 0.00 0.02 0.02 0.01 0.01 0.00 0.00 0.00 0.00 0.00 0.00 0.00 0.00 0.00 0.00 0.00 0.00 0.00 0.00 0.01 0.00 0.00 0.00 0.00 0.00 0.00 0.00 0.00 0.00 0.00 0.00 0.00 0.00 0.00 0.00 0.00 0.00 0.00 0.00 0.00
0.00 0.00 0.00 0.00 0.00 0.01 0.01 0.02 0.01 0.00 0.00 0.00 0.00 0.00 0.00 0.00 0.00 0.00 0.00 0.00 0.00 0.01 0.01 0.00 0.00 0.00 0.00 0.00 0.00 0.00 0.00 0.00 0.00 0.00 0.00 0.00 0.00 0.00 0.00 0.00 0.00 0.00 0.00
0.00 0.00 0.00 0.00 0.00 0.00 0.00 0.02 0.02 0.01 0.01 0.01 0.00 0.00 0.00 0.00 0.00 0.00 0.00 0.00 0.02 0.02 0.00 0.00 0.00 0.00 0.00 0.00 0.00 0.00 0.00 0.00 0.00 0.00 0.00 0.00 0.00 0.00 0.00 0.00 0.00 0.00 0.00
0.00 0.00 0.00 0.00 0.00 0.00 0.00 0.00 0.01 0.01 0.00 0.01 0.02 0.00 0.01 0.00 0.00 0.00 0.00 0.00 0.03 0.02 0.00 0.00 0.00 0.00 0.00 0.00 0.00 0.00 0.00 0.00 0.00 0.00 0.00 0.00 0.00 0.00 0.00 0.00 0.00 0.00 0.00
0.00 0.00 0.00 0.01 0.00 0.00 0.00 0.00 0.00 0.00 0.00 0.00 0.01 0.02 0.03 0.01 0.03 0.00 0.00 0.00 0.01 0.01 0.00 0.00 0.00 0.00 0.00 0.00 0.00 0.00 0.00 0.00 0.00 0.00 0.00 0.00 0.00 0.00 0.00 0.00 0.00 0.00 0.00
0.01 0.02 0.01 0.01 0.01 0.00 0.00 0.00 0.00 0.00 0.00 0.00 0.00 0.00 0.01 0.01 0.04 0.01 0.00 0.00 0.00 0.00 0.00 0.00 0.00 0.00 0.00 0.00 0.00 0.00 0.00 0.00 0.00 0.00 0.00 0.00 0.00 0.00 0.00 0.00 0.00 0.00 0.00
0.14 0.12 0.04 0.04 0.06 0.04 0.02 0.01 0.02 0.01 0.00 0.00 0.01 0.01 0.01 0.04 0.02 0.02 0.00 0.00 0.00 0.00 0.01 0.00 0.00 0.00 0.00 0.00 0.00 0.00 0.00 0.00 0.00 0.00 0.00 0.00 0.00 0.00 0.00 0.00 0.00 0.00 0.00
0.17 0.15 0.05 0.01 0.02 0.01 0.00 0.00 0.00 0.00 0.00 0.00 0.01 0.02 0.03 0.04 0.05 0.03 0.03 0.00 0.00 0.00 0.01 0.00 0.00 0.00 0.00 0.00 0.00 0.00 0.00 0.00 0.00 0.00 0.00 0.00 0.00 0.00 0.00 0.00 0.00 0.00 0.00
0.05 0.13 0.14 0.19 0.11 0.03 0.01 0.00 0.00 0.00 0.00 0.00 0.00 0.00 0.01 0.02 0.03 0.03 0.02 0.00 0.00 0.00 0.01 0.01 0.00 0.00 0.00 0.00 0.00 0.00 0.00 0.00 0.00 0.00 0.00 0.00 0.00 0.00 0.00 0.00 0.00 0.00 0.00
0.01 0.05 0.10 0.14 0.15 0.15 0.09 0.03 0.01 0.00 0.00 0.00 0.00 0.00 0.01 0.02 0.02 0.02 0.00 0.00 0.00 0.00 0.00 0.01 0.00 0.00 0.00 0.00 0.00 0.00 0.00 0.00 0.00 0.00 0.00 0.00 0.00 0.00 0.00 0.00 0.00 0.00 0.00
0.00 0.00 0.01 0.03 0.05 0.07 0.05 0.03 0.02 0.01 0.00 0.00 0.00 0.00 0.01 0.02 0.02 0.02 0.00 0.00 0.00 0.00 0.01 0.00 0.00 0.00 0.00 0.00 0.00 0.00 0.00 0.00 0.00 0.00 0.00 0.00 0.00 0.00 0.00 0.00 0.00 0.00 0.00
0.00 0.00 0.01 0.01 0.01 0.02 0.01 0.00 0.00 0.00 0.00 0.00 0.00 0.00 0.00 0.02 0.03 0.03 0.00 0.00 0.00 0.00 0.01 0.01 0.00 0.00 0.00 0.00 0.00 0.00 0.00 0.00 0.00 0.00 0.00 0.00 0.00 0.00 0.00 0.00 0.00 0.00 0.00
0.00 0.01 0.03 0.03 0.03 0.01 0.00 0.00 0.00 0.00 0.00 0.00 0.00 0.00 0.00 0.01 0.02 0.02 0.01 0.00 0.00 0.00 0.00 0.00 0.00 0.00 0.00 0.00 0.00 0.00 0.00 0.00 0.00 0.00 0.00 0.00 0.00 0.00 0.00 0.00 0.00 0.00 0.00
0.00 0.00 0.00 0.00 0.01 0.01 0.00 0.00 0.00 0.00 0.00 0.00 0.00 0.00 0.00 0.00 0.02 0.04 0.04 0.00 0.00 0.01 0.00 0.00 0.00 0.00 0.00 0.00 0.00 0.00 0.00 0.00 0.00 0.00 0.00 0.00 0.00 0.00 0.00 0.00 0.00 0.00 0.00
0.00 0.00 0.00 0.00 0.00 0.00 0.00 0.00 0.00 0.00 0.00 0.00 0.00 0.00 0.00 0.00 0.00 0.01 0.03 0.01 0.01 0.02 0.02 0.00 0.00 0.00 0.00 0.00 0.00 0.00 0.00 0.00 0.00 0.00 0.00 0.00 0.00 0.00 0.00 0.01 0.01 0.00 0.00
0.00 0.00 0.00 0.00 0.00 0.00 0.00 0.00 0.00 0.00 0.00 0.00 0.00 0.00 0.00 0.00 0.00 0.00 0.03 0.03 0.02 0.02 0.02 0.01 0.00 0.00 0.00 0.00 0.00 0.00 0.00 0.00 0.00 0.00 0.00 0.00 0.00 0.00 0.00 0.00 0.00 0.00 0.00
0.00 0.00 0.00 0.00 0.00 0.00 0.00 0.00 0.00 0.00 0.00 0.00 0.00 0.00 0.00 0.00 0.00 0.00 0.00 0.01 0.02 0.03 0.03 0.02 0.01 0.00 0.00 0.00 0.00 0.00 0.00 0.00 0.00 0.00 0.00 0.00 0.00 0.00 0.00 0.00 0.00 0.00 0.00
0.00 0.00 0.00 0.00 0.00 0.00 0.00 0.00 0.00 0.00 0.00 0.00 0.00 0.00 0.00 0.00 0.01 0.01 0.00 0.01 0.01 0.00 0.02 0.02 0.02 0.01 0.00 0.00 0.00 0.00 0.00 0.00 0.00 0.00 0.00 0.00 0.00 0.00 0.00 0.00 0.00 0.00 0.00
0.00 0.00 0.00 0.00 0.00 0.00 0.00 0.00 0.00 0.00 0.00 0.00 0.00 0.00 0.00 0.00 0.01 0.02 0.02 0.03 0.01 0.01 0.01 0.01 0.01 0.00 0.00 0.00 0.00 0.00 0.00 0.00 0.00 0.00 0.00 0.00 0.00 0.00 0.00 0.00 0.00 0.00 0.00
0.00 0.00 0.00 0.00 0.00 0.00 0.00 0.00 0.00 0.00 0.00 0.00 0.00 0.00 0.01 0.01 0.01 0.02 0.04 0.03 0.02 0.01 0.00 0.00 0.00 0.01 0.00 0.00 0.00 0.00 0.00 0.00 0.00 0.00 0.00 0.00 0.00 0.00 0.00 0.00 0.00 0.00 0.00
0.02 0.01 0.01 0.00 0.00 0.00 0.00 0.00 0.00 0.00 0.00 0.00 0.00 0.00 0.02 0.04 0.04 0.03 0.05 0.05 0.02 0.00 0.00 0.01 0.00 0.00 0.00 0.00 0.00 0.00 0.00 0.00 0.00 0.00 0.00 0.00 0.00 0.00 0.00 0.00 0.00 0.00 0.00
0.02 0.03 0.02 0.00 0.00 0.00 0.00 0.00 0.00 0.00 0.00 0.00 0.00 0.00 0.00 0.01 0.04 0.05 0.05 0.05 0.04 0.01 0.00 0.00 0.00 0.00 0.00 0.00 0.00 0.00 0.00 0.00 0.00 0.00 0.00 0.00 0.00 0.00 0.00 0.00 0.00 0.00 0.00
0.01 0.00 0.00 0.00 0.00 0.00 0.00 0.00 0.00 0.00 0.00 0.00 0.01 0.02 0.01 0.01 0.01 0.02 0.03 0.05 0.09 0.08 0.02 0.01 0.01 0.00 0.00 0.00 0.00 0.00 0.00 0.00 0.00 0.00 0.00 0.00 0.00 0.00 0.00 0.00 0.00 0.00 0.00
0.00 0.00 0.00 0.00 0.00 0.00 0.00 0.00 0.01 0.01 0.00 0.00 0.00 0.00 0.01 0.01 0.01 0.02 0.04 0.05 0.07 0.10 0.10 0.09 0.06 0.04 0.04 0.04 0.04 0.01 0.01 0.02 0.01 0.00 0.00 0.00 0.00 0.00 0.00 0.00 0.00 0.00 0.00
0.00 0.00 0.00 0.00 0.01 0.01 0.00 0.00 0.00 0.00 0.00 0.00 0.00 0.01 0.01 0.01 0.01 0.01 0.02 0.05 0.05 0.05 0.08 0.10 0.15 0.13 0.13 0.13 0.14 0.12 0.08 0.08 0.05 0.04 0.02 0.00 0.00 0.00 0.00 0.00 0.00 0.00 0.00
MSLP
1010.92 1010.77 1010.80 1011.16 1011.44 1011.82 1012.17 1012.47 1012.69 1012.84 1012.93 1013.03 1013.27 1013.53 1013.76 1014.01 1014.25 1014.53 1014.75 1014.91 1015.13 1015.18 1015.25 1015.33 1015.50 1015.79 1016.00 1016.19 1016.46 1016.60 1016.81 1017.08 1017.10 1017.17 1017.24 1017.33 1017.34 1017.47 1017.55 1017.49 1017.38 1017.39 1017.30
1010.69 1010.79 1010.81 1011.10 1011.41 1011.69 1012.08 1012.44 1012.75 1013.02 1013.18 1013.28 1013.40 1013.61 1013.87 1014.08 1014.40 1014.62 1014.86 1015.01 1015.12 1015.22 1015.32 1015.51 1015.71 1016.07 1016.21 1016.47 1016.86 1017.05 1017.26 1017.37 1017.51 1017.60 1017.64 1017.73 1017.81 1017.78 1017.80 1017.87 1017.80 1017.64 1017.67
1010.83 1010.82 1010.96 1011.16 1011.52 1011.81 1012.22 1012.54 1012.90 1013.07 1013.27 1013.55 1013.68 1013.77 1013.97 1014.23 1014.52 1014.66 1014.79 1015.06 1015.17 1015.33 1015.43 1015.74 1015.89 1016.24 1016.56 1016.95 1017.09 1017.24 1017.47 1017.65 1017.78 1017.93 1018.02 1018.12 1018.10 1018.04 1018.09 1018.19 1018.24 1018.25 1018.20
1010.95 1011.03 1011.19 1011.31 1011.69 1011.98 1012.30 1012.66 1013.02 1013.27 1013.44 1013.54 1013.79 1013.88 1014.04 1014.29 1014.54 1014.73 1014.86 1015.03 1015.29 1015.55 1015.76 1016.09 1016.28 1016.44 1016.75 1017.11 1017.26 1017.35 1017.56 1017.78 1017.92 1018.10 1018.25 1018.29 1018.20 1018.14 1018.21 1018.30 1018.35 1018.44 1018.49
1011.04 1011.10 1011.24 1011.45 1011.83 1012.12 1012.37 1012.63 1012.92 1013.24 1013.54 1013.68 1013.73 1013.93 1014.12 1014.29 1014.57 1014.69 1014.94 1015.12 1015.40 1015.72 1016.05 1016.43 1016.59 1016.74 1016.94 1017.18 1017.40 1017.55 1017.70 1017.94 1018.15 1018.29 1018.45 1018.50 1018.48 1018.39 1018.44 1018.44 1018.53 1018.65 1018.69
1011.49 1011.46 1011.52 1011.58 1011.96 1012.22 1012.45 1012.77 1012.90 1013.12 1013.38 1013.71 1013.87 1013.99 1014.17 1014.32 1014.55 1014.75 1014.91 1015.22 1015.56 1015.82 1016.12 1016.55 1016.80 1017.00 1017.17 1017.30 1017.48 1017.72 1017.90 1018.10 1018.38 1018.61 1018.59 1018.53 1018.57 1018.44 1018.59 1018.72 1018.82 1018.86 1018.85
1011.83 1011.61 1011.69 1011.76 1011.99 1012.44 1012.64 1012.82 1013.06 1013.09 1013.37 1013.57 1013.91 1014.10 1014.21 1014.26 1014.50 1014.68 1015.08 1015.20 1015.52 1015.80 1016.14 1016.57 1016.90 1017.08 1017.28 1017.47 1017.55 1017.68 1017.97 1018.28 1018.59 1018.75 1018.83 1018.79 1018.66 1018.53 1018.66 1018.85 1018.94 1019.03 1019.11
1011.71 1011.76 1011.81 1012.05 1012.15 1012.44 1012.75 1012.94 1013.18 1013.34 1013.57 1013.59 1013.70 1013.96 1014.13 1014.27 1014.35 1014.56 1014.96 1015.29 1015.50 1015.73 1016.13 1016.44 1016.84 1017.17 1017.40 1017.48 1017.68 1017.81 1018.13 1018.43 1018.66 1018.88 1018.92 1018.93 1018.71 1018.66 1018.76 1018.91 1019.07 1019.16 1019.28
1011.97 1011.94 1012.00 1012.23 1012.54 1012.83 1012.96 1013.23 1013.43 1013.60 1013.73 1013.77 1013.64 1013.80 1014.07 1014.25 1014.46 1014.63 1014.85 1015.16 1015.37 1015.57 1015.83 1016.39 1016.74 1017.00 1017.33 1017.57 1017.72 1017.95 1018.18 1018.42 1018.76 1018.91 1018.95 1019.00 1018.80 1018.76 1018.85 1018.92 1019.01 1019.16 1019.33
1012.96 1012.54 1012.10 1012.31 1012.60 1012.96 1013.20 1013.35 1013.52 1013.60 1013.70 1013.64 1013.64 1013.74 1014.09 1014.22 1014.40 1014.64 1014.93 1015.16 1015.21 1015.59 1015.94 1016.25 1016.61 1016.92 1017.15 1017.43 1017.76 1017.90 1018.21 1018.49 1018.78 1018.95 1019.01 1019.01 1018.82 1018.84 1018.97 1019.07 1019.07 1019.13 1019.25
1013.34 1013.19 1013.23 1012.84 1012.77 1012.95 1013.13 1013.25 1013.41 1013.53 1013.54 1013.54 1013.40 1013.72 1014.02 1014.21 1014.32 1014.60 1014.94 1015.18 1015.20 1015.50 1015.94 1016.19 1016.44 1016.81 1017.08 1017.30 1017.57 1017.90 1018.09 1018.48 1018.71 1018.86 1018.91 1018.86 1018.77 1018.75 1018.97 1019.06 1019.14 1019.22 1019.30
1013.52 1013.41 1013.44 1013.39 1013.24 1013.03 1013.19 1013.00 1013.22 1013.37 1013.54 1013.46 1013.36 1013.56 1013.82 1014.11 1014.40 1014.48 1014.79 1015.16 1015.21 1015.42 1015.79 1016.12 1016.35 1016.65 1017.01 1017.42 1017.58 1017.76 1018.19 1018.38 1018.55 1018.63 1018.73 1018.71 1018.68 1018.57 1018.72 1018.93 1019.05 1019.10 1019.22
1013.66 1013.53 1013.50 1013.47 1013.36 1013.45 1013.10 1013.14 1013.35 1013.42 1013.37 1013.36 1013.39 1013.29 1013.43 1013.73 1014.29 1014.84 1014.82 1015.08 1015.28 1015.46 1015.74 1015.87 1016.28 1016.69 1017.00 1017.40 1017.74 1017.90 1018.11 1018.28 1018.39 1018.48 1018.44 1018.45 1018.48 1018.36 1018.46 1018.71 1018.81 1019.01 1019.08
1013.44 1013.33 1013.46 1013.43 1013.30 1013.18 1013.32 1013.40 1013.37 1013.36 1013.35 1013.52 1013.27 1013.37 1013.43 1013.56 1013.69 1014.29 1014.94 1014.89 1015.13 1015.41 1015.83 1015.90 1016.14 1016.58 1016.91 1017.26 1017.46 1017.75 1017.90 1018.12 1018.23 1018.25 1018.26 1018.24 1018.28 1018.23 1018.25 1018.43 1018.65 1018.76 1018.74
1013.13 1012.96 1013.07 1013.24 1013.16 1012.90 1013.16 1013.18 1013.33 1013.33 1013.32 1013.28 1013.36 1013.27 1013.36 1013.18 1013.44 1013.42 1013.93 1014.77 1015.04 1015.24 1015.53 1015.97 1016.06 1016.42 1016.94 1017.12 1017.32 1017.47 1017.60 1017.74 1018.01 1018.04 1017.98 1017.98 1017.95 1017.97 1017.94 1018.02 1018.28 1018.45 1018.56
1012.64 1012.46 1012.61 1012.89 1012.79 1012.72 1012.81 1012.96 1012.91 1013.08 1013.05 1013.18 1013.16 1013.15 1013.16 1013.44 1013.22 1013.07 1013.44 1013.66 1014.59 1014.78 1015.20 1015.43 1016.01 1016.37 1016.89 1017.24 1017.23 1017.18 1017.22 1017.36 1017.43 1017.59 1017.60 1017.57 1017.58 1017.62 1017.75 1017.73 1017.83 1018.01 1018.24
1012.21 1011.90 1012.13 1012.29 1012.59 1012.72 1012.60 1012.61 1012.63 1012.60 1012.85 1013.04 1012.99 1013.14 1013.02 1012.89 1013.10 1013.28 1013.05 1013.30 1013.39 1014.61 1014.71 1015.24 1015.75 1016.09 1016.84 1017.05 1017.31 1016.98 1016.87 1016.93 1017.06 1016.99 1017.12 1017.25 1017.27 1017.29 1017.48 1017.53 1017.53 1017.63 1017.86
1011.78 1011.57 1011.31 1011.42 1011.66 1012.02 1012.30 1012.46 1012.55 1012.66 1012.83 1012.61 1012.65 1012.74 1012.73 1012.60 1012.60 1012.92 1013.40 1013.32 1013.01 1013.73 1014.55 1014.76 1015.24 1016.16 1016.69 1016.83 1016.89 1016.78 1016.70 1016.50 1016.63 1016.52 1016.53 1016.76 1016.91 1016.93 1016.99 1017.12 1017.28 1017.35 1017.48
1010.95 1010.92 1010.92 1011.04 1011.18 1011.50 1011.87 1012.17 1012.42 1012.41 1012.52 1012.48 1012.38 1012.40 1012.27 1012.20 1012.15 1012.55 1012.80 1013.07 1013.08 1013.08 1013.46 1014.27 1015.71 1016.19 1016.02 1016.73 1016.41 1016.63 1016.29 1016.23 1016.14 1015.95 1016.06 1016.19 1016.34 1016.44 1016.53 1016.54 1016.72 1016.91 1017.07
1010.40 1010.37 1010.51 1010.78 1011.01 1011.46 1011.85 1012.12 1012.26 1012.28 1012.10 1012.12 1011.96 1011.98 1011.93 1011.67 1011.55 1011.84 1012.00 1012.28 1012.71 1013.15 1013.29 1013.77 1015.15 1015.72 1015.50 1016.19 1016.47 1016.01 1015.77 1015.80 1015.72 1015.58 1015.60 1015.52 1015.80 1015.82 1015.98 1016.18 1016.33 1016.50 1016.70
1010.26 1010.19 1010.18 1010.46 1010.77 1011.17 1011.52 1011.71 1011.85 1011.63 1011.46 1011.48 1011.37 1011.10 1011.07 1010.94 1010.70 1010.72 1011.02 1011.53 1012.04 1012.41 1012.33 1012.28 1014.27 1015.25 1015.43 1015.94 1016.42 1016.15 1015.36 1015.38 1015.10 1014.99 1014.97 1015.21 1015.18 1015.23 1015.36 1015.58 1015.92 1015.99 1016.11
1010.17 1010.17 1010.08 1010.33 1010.66 1010.99 1011.18 1011.20 1011.26 1011.10 1010.94 1010.74 1010.54 1010.24 1010.15 1010.05 1009.82 1009.80 1010.09 1010.72 1010.74 1011.78 1011.85 1012.08 1013.52 1014.16 1014.35 1015.04 1015.43 1015.98 1015.47 1015.19 1014.67 1014.46 1014.49 1014.71 1014.77 1014.79 1014.89 1015.05 1015.40 1015.64 1015.94
1010.37 1010.53 1010.43 1010.70 1010.72 1010.77 1010.77 1010.81 1010.76 1010.66 1010.46 1010.37 1010.10 1009.82 1009.37 1009.24 1008.97 1009.51 1009.01 1009.52 1009.91 1010.62 1010.89 1011.96 1012.51 1013.56 1013.64 1014.17 1014.34 1014.66 1014.92 1014.61 1014.36 1014.23 1014.29 1014.29 1014.44 1014.57 1014.58 1014.80 1015.19 1015.58 1015.56
1010.81 1010.97 1010.90 1010.77 1010.79 1010.49 1010.41 1010.18 1010.25 1010.16 1010.28 1009.94 1009.45 1009.04 1008.82 1008.75 1008.71 1008.76 1009.48 1009.59 1009.26 1009.99 1010.87 1010.78 1012.16 1012.26 1012.86 1013.37 1014.15 1013.93 1013.84 1013.86 1014.06 1014.42 1014.26 1014.24 1014.37 1014.34 1014.23 1014.53 1014.77 1015.13 1015.18
1011.71 1012.02 1011.83 1011.44 1011.18 1010.76 1010.26 1009.72 1009.76 1010.00 1010.25 1009.20 1008.50 1008.38 1008.25 1008.04 1008.12 1008.26 1008.95 1009.50 1009.91 1010.17 1010.63 1011.02 1011.99 1011.83 1012.39 1012.79 1012.83 1013.18 1013.41 1013.64 1013.87 1014.17 1014.08 1014.21 1014.45 1014.04 1014.18 1014.10 1014.32 1014.79 1014.80
1012.88 1012.59 1012.08 1011.63 1011.84 1011.26 1010.94 1010.50 1010.16 1010.32 1010.13 1009.42 1008.72 1008.40 1008.25 1007.52 1007.78 1007.97 1008.75 1009.18 1009.71 1010.02 1010.25 1010.74 1011.30 1011.43 1011.46 1011.66 1012.26 1012.39 1012.64 1012.96 1013.34 1013.82 1014.16 1014.19 1014.33 1013.92 1013.92 1013.95 1014.26 1014.31 1014.30
Thickness
5761 5763 5763 5761 5760 5759 5760 5759 5758 5759 5760 5760 5759 5758 5757 5755 5754 5752 5751 5750 5748 5748 5748 5748 5748 5745 5744 5741 5738 5736 5734 5732 5732 5731 5731 5730 5730 5728 5728 5727 5728 5727 5727
5761 5760 5760 5758 5756 5756 5755 5755 5755 5754 5755 5756 5755 5755 5754 5753 5751 5749 5748 5748 5747 5747 5746 5745 5744 5742 5741 5739 5735 5733 5730 5729 5728 5728 5727 5726 5725 5725 5724 5724 5724 5724 5723
5756 5757 5756 5754 5751 5750 5749 5749 5749 5750 5750 5750 5750 5751 5750 5749 5748 5747 5746 5745 5746 5745 5745 5742 5741 5739 5738 5735 5734 5731 5729 5727 5725 5724 5724 5723 5723 5722 5721 5720 5720 5719 5719
5750 5751 5750 5750 5748 5746 5744 5743 5742 5743 5744 5746 5745 5746 5746 5746 5745 5744 5744 5742 5741 5740 5740 5738 5737 5736 5735 5732 5731 5730 5728 5726 5724 5723 5722 5721 5721 5720 5719 5718 5717 5716 5715
5745 5746 5745 5744 5742 5741 5740 5740 5739 5738 5738 5739 5742 5742 5742 5742 5741 5741 5740 5740 5738 5736 5736 5733 5732 5732 5730 5730 5729 5727 5726 5723 5722 5721 5719 5718 5718 5717 5716 5716 5714 5713 5711
5736 5736 5738 5738 5737 5736 5736 5734 5734 5734 5734 5733 5735 5737 5737 5738 5737 5737 5737 5736 5735 5734 5732 5730 5728 5727 5726 5726 5726 5725 5723 5721 5719 5717 5717 5716 5715 5715 5713 5712 5710 5709 5708
5726 5729 5730 5733 5733 5730 5730 5729 5728 5729 5728 5728 5727 5728 5730 5733 5732 5734 5732 5732 5732 5731 5730 5727 5724 5723 5722 5722 5722 5722 5720 5718 5717 5715 5713 5713 5712 5712 5710 5708 5707 5706 5705
5721 5721 5722 5722 5724 5725 5724 5723 5722 5721 5720 5721 5723 5722 5723 5725 5728 5729 5729 5727 5727 5727 5726 5725 5723 5719 5718 5718 5718 5717 5715 5714 5713 5711 5711 5710 5709 5709 5707 5706 5704 5702 5700
5712 5713 5715 5715 5715 5715 5716 5716 5715 5715 5714 5714 5717 5718 5718 5718 5719 5720 5722 5723 5723 5723 5723 5721 5719 5718 5715 5713 5714 5713 5711 5710 5709 5708 5707 5707 5706 5706 5705 5704 5703 5700 5698
5697 5702 5708 5709 5708 5707 5708 5707 5707 5707 5708 5709 5710 5711 5710 5712 5712 5712 5713 5713 5718 5717 5716 5716 5715 5714 5714 5711 5708 5709 5707 5705 5704 5703 5703 5703 5703 5702 5701 5700 5699 5699 5697
5686 5691 5693 5697 5700 5701 5701 5700 5700 5700 5703 5704 5706 5705 5705 5706 5706 5706 5706 5705 5709 5710 5710 5710 5710 5709 5708 5709 5706 5704 5704 5702 5700 5700 5700 5699 5699 5699 5698 5697 5696 5695 5693
5673 5679 5683 5685 5687 5691 5691 5693 5695 5695 5696 5699 5701 5700 5700 5699 5698 5699 5699 5699 5700 5702 5703 5704 5705 5704 5703 5701 5702 5701 5699 5699 5698 5697 5697 5696 5695 5696 5695 5694 5693 5693 5691
5660 5666 5670 5674 5677 5679 5682 5685 5686 5687 5691 5692 5693 5695 5696 5695 5692 5689 5691 5691 5692 5695 5696 5698 5698 5698 5697 5697 5695 5695 5694 5695 5695 5693 5693 5693 5692 5693 5693 5691 5691 5689 5688
5650 5656 5659 5663 5667 5670 5671 5674 5677 5679 5682 5683 5686 5688 5689 5688 5689 5685 5682 5684 5685 5687 5687 5689 5691 5691 5691 5691 5691 5690 5690 5689 5689 5690 5690 5690 5690 5689 5689 5688 5687 5686 5686
5640 5646 5650 5652 5657 5663 5665 5668 5668 5671 5673 5676 5677 5679 5681 5685 5685 5685 5682 5677 5678 5680 5681 5680 5682 5682 5682 5684 5685 5685 5686 5687 5685 5686 5687 5687 5687 5687 5686 5686 5683 5681 5680
5632 5638 5641 5645 5650 5654 5660 5662 5665 5664 5667 5667 5669 5671 5673 5674 5678 5679 5678 5679 5672 5675 5674 5674 5673 5673 5672 5672 5677 5679 5680 5681 5682 5682 5683 5684 5684 5684 5682 5682 5681 5679 5676
5623 5629 5634 5639 5641 5645 5651 5653 5654 5655 5656 5657 5660 5661 5664 5667 5668 5668 5673 5673 5674 5667 5669 5668 5666 5666 5664 5665 5667 5673 5675 5676 5676 5679 5680 5679 5680 5680 5678 5677 5677 5675 5673
5612 5619 5625 5632 5636 5639 5642 5643 5643 5644 5645 5650 5652 5654 5655 5659 5661 5660 5659 5662 5668 5663 5656 5661 5659 5651 5652 5656 5658 5663 5668 5671 5670 5675 5677 5675 5675 5675 5675 5674 5672 5670 5669
5605 5610 5616 5622 5628 5631 5632 5633 5634 5635 5639 5640 5644 5646 5650 5651 5654 5652 5652 5652 5654 5658 5658 5655 5643 5645 5649 5646 5653 5655 5662 5664 5667 5669 5672 5671 5670 5670 5670 5671 5669 5668 5665
5594 5600 5605 5613 5617 5619 5621 5623 5625 5628 5634 5634 5637 5640 5642 5646 5647 5645 5647 5648 5645 5647 5649 5650 5642 5638 5644 5640 5641 5649 5657 5657 5661 5665 5666 5667 5665 5667 5666 5665 5665 5664 5662
5584 5591 5599 5605 5608 5610 5610 5614 5617 5623 5628 5630 5633 5637 5638 5642 5645 5644 5642 5642 5640 5641 5646 5652 5639 5633 5635 5631 5630 5636 5650 5650 5656 5659 5661 5661 5662 5662 5662 5661 5658 5660 5658
5574 5581 5590 5594 5596 5596 5598 5605 5609 5615 5621 5625 5629 5634 5635 5638 5641 5642 5639 5635 5637 5633 5638 5642 5634 5634 5630 5626 5630 5626 5633 5640 5650 5652 5656 5655 5655 5656 5658 5656 5655 5652 5649
5562 5568 5577 5578 5584 5589 5595 5599 5604 5610 5615 5618 5622 5627 5632 5633 5636 5634 5638 5634 5635 5633 5636 5630 5629 5627 5628 5624 5626 5626 5621 5630 5636 5642 5645 5647 5647 5648 5650 5647 5645 5642 5641
5552 5557 5565 5570 5575 5584 5588 5595 5600 5605 5606 5611 5618 5624 5626 5627 5628 5627 5625 5628 5636 5630 5624 5631 5624 5625 5621 5618 5614 5621 5625 5629 5628 5627 5632 5635 5635 5638 5639 5637 5635 5634 5634
5539 5541 5549 5557 5566 5574 5582 5592 5596 5597 5598 5608 5617 5619 5620 5623 5623 5624 5623 5621 5621 5620 5619 5617 5611 5617 5615 5612 5614 5614 5615 5617 5618 5619 5623 5623 5622 5628 5627 5629 5628 5626 5628
5526 5534 5543 5552 5555 5565 5570 5576 5582 5585 5590 5601 5607 5611 5613 5620 5619 5621 5616 5614 5612 5611 5611 5607 5603 5607 5610 5610 5609 5610 5611 5611 5612 5610 5607 5611 5612 5620 5621 5621 5621 5621 5622